This is the latest recevied weather packets stored in our database for station/object K6LOT-13. If no packets are shown the sender has not sent any weather packets the latest 10 day(s).
| Time | Temp. | Humidity | Pressure | Rain* | Wind** | Luminosity | Snow |
|---|---|---|---|---|---|---|---|
| 1777749079 | 22.78° C | 65% | 1015.5 hPa | 0 mm | - | - | - |
| 1777748758 | 22.78° C | 65% | 1015.5 hPa | 0 mm | - | - | - |
| 1777748449 | 22.22° C | 66% | 1015.8 hPa | 0 mm | - | - | - |
| 1777748142 | 22.22° C | 67% | 1015.8 hPa | 0 mm | - | - | - |
| 1777747833 | 21.67° C | 68% | 1015.6 hPa | 0 mm | - | - | - |
| 1777747556 | 21.67° C | 69% | 1015.8 hPa | 0 mm | - | - | - |
| 1777746939 | 20.56° C | 72% | 1015.8 hPa | 0 mm | - | - | - |
| 1777746600 | 20° C | 75% | 1015.7 hPa | 0 mm | - | - | - |
| 1777746293 | 19.44° C | 75% | 1015.7 hPa | 0 mm | - | - | - |
| 1777745676 | 18.89° C | 76% | 1015.8 hPa | 0 mm | - | - | - |
| 1777745366 | 18.33° C | 77% | 1015.9 hPa | 0 mm | - | - | - |
| 1777744754 | 17.78° C | 77% | 1016 hPa | 0 mm | - | - | - |
| 1777744478 | 17.78° C | 77% | 1016 hPa | 0 mm | - | - | - |
| 1777743521 | 17.78° C | 77% | 1016.3 hPa | 0 mm | - | - | - |
| 1777742901 | 17.22° C | 77% | 1016.4 hPa | 0 mm | - | - | - |
| 1777741698 | 17.22° C | 78% | 1016.6 hPa | 0 mm | - | - | - |
| 1777741051 | 17.22° C | 78% | 1016.6 hPa | 0 mm | - | - | - |
| 1777739818 | 17.22° C | 78% | 1016.5 hPa | 0 mm | - | - | - |
| 1777739205 | 17.22° C | 78% | 1016.6 hPa | 0 mm | - | - | - |
| 1777738589 | 16.67° C | 79% | 1016.6 hPa | 0 mm | - | - | - |
| 1777738282 | 16.67° C | 79% | 1016.5 hPa | 0 mm | - | - | - |
| 1777737976 | 16.67° C | 79% | 1016.6 hPa | 0 mm | - | - | - |
| 1777737700 | 16.67° C | 79% | 1016.6 hPa | 0 mm | - | - | - |
| 1777737364 | 16.67° C | 79% | 1016.5 hPa | 0 mm | - | - | - |
| 1777737055 | 16.67° C | 79% | 1016.4 hPa | 0 mm | - | - | - |
* Rain latest hour (hover to see other rain measurements)
** Current wind speed in m/s (hover to see current wind gust speed)